PRIVATE WETTERSTATION BILLIGHEIM-ALLFELD                       ZURCK
Wetterdaten: Freitag, 04.11.2016
Datum Zeit Temp. A. Temp. A. min Temp. A. max Feuchte A. Luftdruck Regen Wind Richtung Richtung Sonnenschein ET Solar Taupunkt Windchill Windben Empfang
04.11.2016 00:00 -0,5 C -0,5 C -0,4 C 91 % 1020,7 hPa 0,0 l/m 0,0 km/h (0 Bft) N 0 0 min 0,000 mm 0 W/m -1,8 C -0,5 C 0,0 km/h (0 Bft) 97 %
04.11.2016 00:10 -0,6 C -0,6 C -0,5 C 91 % 1020,7 hPa 0,0 l/m 0,0 km/h (0 Bft) N 0 0 min 0,000 mm 0 W/m -1,9 C -0,6 C 0,0 km/h (0 Bft) 98 %
04.11.2016 00:20 -0,7 C -0,7 C -0,6 C 91 % 1020,7 hPa 0,0 l/m 0,0 km/h (0 Bft) N 0 0 min 0,000 mm 0 W/m -2,0 C -0,7 C 0,0 km/h (0 Bft) 97 %
04.11.2016 00:30 -0,7 C -0,7 C -0,7 C 91 % 1020,6 hPa 0,0 l/m 0,0 km/h (0 Bft) N 0 0 min 0,000 mm 0 W/m -2,0 C -0,7 C 0,0 km/h (0 Bft) 88 %
04.11.2016 00:40 -0,8 C -0,8 C -0,7 C 91 % 1020,4 hPa 0,0 l/m 0,0 km/h (0 Bft) N 0 0 min 0,000 mm 0 W/m -2,1 C -0,8 C 0,0 km/h (0 Bft) 98 %
04.11.2016 00:50 -0,8 C -0,8 C -0,8 C 91 % 1020,3 hPa 0,0 l/m 0,0 km/h (0 Bft) N 0 0 min 0,000 mm 0 W/m -2,1 C -0,8 C 0,0 km/h (0 Bft) 98 %
04.11.2016 01:00 -0,9 C -0,9 C -0,8 C 91 % 1020,2 hPa 0,0 l/m 0,0 km/h (0 Bft) N 0 0 min 0,000 mm 0 W/m -2,2 C -0,9 C 0,0 km/h (0 Bft) 98 %
04.11.2016 01:10 -0,9 C -0,9 C -0,9 C 91 % 1020,2 hPa 0,0 l/m 0,0 km/h (0 Bft) N 0 0 min 0,000 mm 0 W/m -2,2 C -0,9 C 0,0 km/h (0 Bft) 98 %
04.11.2016 01:20 -1,0 C -1,0 C -0,9 C 91 % 1020,1 hPa 0,0 l/m 0,0 km/h (0 Bft) N 0 0 min 0,000 mm 0 W/m -2,3 C -1,0 C 0,0 km/h (0 Bft) 98 %
04.11.2016 01:30 -1,1 C -1,1 C -1,0 C 91 % 1020,0 hPa 0,0 l/m 0,0 km/h (0 Bft) N 0 0 min 0,000 mm 0 W/m -2,4 C -1,1 C 0,0 km/h (0 Bft) 98 %
04.11.2016 01:40 -1,1 C -1,1 C -1,1 C 91 % 1020,1 hPa 0,0 l/m 0,0 km/h (0 Bft) N 0 0 min 0,000 mm 0 W/m -2,4 C -1,1 C 0,0 km/h (0 Bft) 98 %
04.11.2016 01:50 -1,2 C -1,2 C -1,1 C 91 % 1020,0 hPa 0,0 l/m 0,0 km/h (0 Bft) N 0 0 min 0,000 mm 0 W/m -2,5 C -1,2 C 0,0 km/h (0 Bft) 88 %
04.11.2016 02:00 -1,2 C -1,2 C -1,2 C 91 % 1019,9 hPa 0,0 l/m 0,0 km/h (0 Bft) N 0 0 min 0,000 mm 0 W/m -2,5 C -1,2 C 0,0 km/h (0 Bft) 98 %
04.11.2016 02:10 -1,2 C -1,2 C -1,2 C 91 % 1019,9 hPa 0,0 l/m 0,0 km/h (0 Bft) N 0 0 min 0,000 mm 0 W/m -2,5 C -1,2 C 0,0 km/h (0 Bft) 98 %
04.11.2016 02:20 -1,3 C -1,3 C -1,2 C 92 % 1019,7 hPa 0,0 l/m 0,0 km/h (0 Bft) N 0 0 min 0,000 mm 0 W/m -2,4 C -1,3 C 0,0 km/h (0 Bft) 98 %
04.11.2016 02:30 -1,4 C -1,4 C -1,3 C 92 % 1019,6 hPa 0,0 l/m 0,0 km/h (0 Bft) N 0 0 min 0,000 mm 0 W/m -2,5 C -1,4 C 0,0 km/h (0 Bft) 98 %
04.11.2016 02:40 -1,5 C -1,5 C -1,4 C 91 % 1019,6 hPa 0,0 l/m 0,0 km/h (0 Bft) N 0 0 min 0,000 mm 0 W/m -2,8 C -1,5 C 0,0 km/h (0 Bft) 98 %
04.11.2016 02:50 -1,6 C -1,6 C -1,5 C 91 % 1019,6 hPa 0,0 l/m 0,0 km/h (0 Bft) N 0 0 min 0,000 mm 0 W/m -2,9 C -1,6 C 0,0 km/h (0 Bft) 98 %
04.11.2016 03:00 -1,6 C -1,6 C -1,6 C 92 % 1019,5 hPa 0,0 l/m 0,0 km/h (0 Bft) N 0 0 min 0,000 mm 0 W/m -2,7 C -1,6 C 0,0 km/h (0 Bft) 89 %
04.11.2016 03:10 -1,7 C -1,7 C -1,6 C 92 % 1019,4 hPa 0,0 l/m 0,0 km/h (0 Bft) N 0 0 min 0,000 mm 0 W/m -2,8 C -1,7 C 0,0 km/h (0 Bft) 97 %
04.11.2016 03:20 -1,7 C -1,7 C -1,7 C 91 % 1019,3 hPa 0,0 l/m 0,0 km/h (0 Bft) N 0 0 min 0,000 mm 0 W/m -3,0 C -1,7 C 0,0 km/h (0 Bft) 97 %
04.11.2016 03:30 -1,8 C -1,8 C -1,7 C 91 % 1019,3 hPa 0,0 l/m 0,0 km/h (0 Bft) N 0 0 min 0,000 mm 0 W/m -3,1 C -1,8 C 0,0 km/h (0 Bft) 98 %
04.11.2016 03:40 -1,8 C -1,8 C -1,8 C 91 % 1019,2 hPa 0,0 l/m 0,0 km/h (0 Bft) N 0 0 min 0,000 mm 0 W/m -3,1 C -1,8 C 0,0 km/h (0 Bft) 97 %
04.11.2016 03:50 -1,9 C -1,9 C -1,8 C 91 % 1019,1 hPa 0,0 l/m 0,0 km/h (0 Bft) N 0 0 min 0,000 mm 0 W/m -3,2 C -1,9 C 0,0 km/h (0 Bft) 98 %
04.11.2016 04:00 -1,9 C -1,9 C -1,8 C 91 % 1018,8 hPa 0,0 l/m 0,0 km/h (0 Bft) N 0 0 min 0,000 mm 0 W/m -3,2 C -1,9 C 0,0 km/h (0 Bft) 97 %
04.11.2016 04:10 -1,9 C -1,9 C -1,9 C 91 % 1018,8 hPa 0,0 l/m 0,0 km/h (0 Bft) N 0 0 min 0,000 mm 0 W/m -3,2 C -1,9 C 0,0 km/h (0 Bft) 88 %
04.11.2016 04:20 -1,9 C -2,0 C -1,9 C 92 % 1018,7 hPa 0,0 l/m 0,0 km/h (0 Bft) N 0 0 min 0,000 mm 0 W/m -3,0 C -1,9 C 0,0 km/h (0 Bft) 98 %
04.11.2016 04:30 -2,0 C -2,0 C -1,9 C 92 % 1018,5 hPa 0,0 l/m 0,0 km/h (0 Bft) N 0 0 min 0,000 mm 0 W/m -3,1 C -2,0 C 0,0 km/h (0 Bft) 97 %
04.11.2016 04:40 -2,1 C -2,1 C -2,0 C 92 % 1018,4 hPa 0,0 l/m 0,0 km/h (0 Bft) N 0 0 min 0,000 mm 0 W/m -3,2 C -2,1 C 0,0 km/h (0 Bft) 98 %
04.11.2016 04:50 -2,0 C -2,1 C -2,0 C 92 % 1018,3 hPa 0,0 l/m 0,0 km/h (0 Bft) N 0 0 min 0,000 mm 0 W/m -3,1 C -2,0 C 0,0 km/h (0 Bft) 98 %
04.11.2016 05:00 -2,0 C -2,0 C -2,0 C 92 % 1018,2 hPa 0,0 l/m 0,0 km/h (0 Bft) N 0 0 min 0,000 mm 0 W/m -3,1 C -2,0 C 0,0 km/h (0 Bft) 98 %
04.11.2016 05:10 -2,1 C -2,1 C -2,0 C 91 % 1018,0 hPa 0,0 l/m 0,0 km/h (0 Bft) N 0 0 min 0,000 mm 0 W/m -3,4 C -2,1 C 0,0 km/h (0 Bft) 98 %
04.11.2016 05:20 -2,2 C -2,2 C -2,1 C 91 % 1018,0 hPa 0,0 l/m 0,0 km/h (0 Bft) N 0 0 min 0,000 mm 0 W/m -3,5 C -2,2 C 0,0 km/h (0 Bft) 88 %
04.11.2016 05:30 -2,1 C -2,2 C -2,1 C 91 % 1018,0 hPa 0,0 l/m 0,0 km/h (0 Bft) N 0 0 min 0,000 mm 0 W/m -3,4 C -2,1 C 0,0 km/h (0 Bft) 98 %
04.11.2016 05:40 -2,1 C -2,1 C -2,1 C 92 % 1018,2 hPa 0,0 l/m 0,0 km/h (0 Bft) N 0 0 min 0,000 mm 0 W/m -3,2 C -2,1 C 0,0 km/h (0 Bft) 100 %
04.11.2016 05:50 -2,0 C -2,1 C -2,0 C 92 % 1017,9 hPa 0,0 l/m 0,0 km/h (0 Bft) N 0 0 min 0,000 mm 0 W/m -3,1 C -2,0 C 0,0 km/h (0 Bft) 100 %
04.11.2016 06:00 -1,9 C -2,0 C -1,9 C 92 % 1018,0 hPa 0,0 l/m 0,0 km/h (0 Bft) NW 315 0 min 0,000 mm 0 W/m -3,0 C -1,9 C 1,6 km/h (1 Bft) 100 %
04.11.2016 06:10 -1,7 C -1,9 C -1,7 C 92 % 1018,0 hPa 0,0 l/m 0,0 km/h (0 Bft) N 0 0 min 0,000 mm 0 W/m -2,8 C -1,7 C 0,0 km/h (0 Bft) 100 %
04.11.2016 06:20 -1,7 C -1,7 C -1,7 C 92 % 1017,8 hPa 0,0 l/m 0,0 km/h (0 Bft) N 0 0 min 0,000 mm 0 W/m -2,8 C -1,7 C 0,0 km/h (0 Bft) 100 %
04.11.2016 06:30 -1,6 C -1,7 C -1,6 C 92 % 1017,7 hPa 0,0 l/m 0,0 km/h (0 Bft) N 0 0 min 0,000 mm 0 W/m -2,7 C -1,6 C 0,0 km/h (0 Bft) 100 %
04.11.2016 06:40 -1,6 C -1,6 C -1,6 C 92 % 1017,9 hPa 0,0 l/m 0,0 km/h (0 Bft) N 0 0 min 0,000 mm 0 W/m -2,7 C -1,6 C 0,0 km/h (0 Bft) 92 %
04.11.2016 06:50 -1,6 C -1,6 C -1,6 C 92 % 1017,5 hPa 0,0 l/m 0,0 km/h (0 Bft) N 0 0 min 0,000 mm 0 W/m -2,7 C -1,6 C 0,0 km/h (0 Bft) 100 %
04.11.2016 07:00 -1,6 C -1,6 C -1,6 C 92 % 1017,8 hPa 0,0 l/m 0,0 km/h (0 Bft) N-NW 337 0 min 0,000 mm 0 W/m -2,7 C -1,6 C 1,6 km/h (1 Bft) 100 %
04.11.2016 07:10 -1,6 C -1,6 C -1,6 C 92 % 1017,5 hPa 0,0 l/m 0,0 km/h (0 Bft) N 0 0 min 0,000 mm 0 W/m -2,7 C -1,6 C 0,0 km/h (0 Bft) 99 %
04.11.2016 07:20 -1,6 C -1,6 C -1,6 C 92 % 1017,3 hPa 0,0 l/m 0,0 km/h (0 Bft) N 0 0 min 0,000 mm 7 W/m -2,7 C -1,6 C 0,0 km/h (0 Bft) 100 %
04.11.2016 07:30 -1,6 C -1,6 C -1,6 C 92 % 1017,1 hPa 0,0 l/m 0,0 km/h (0 Bft) N 0 0 min 0,000 mm 12 W/m -2,7 C -1,6 C 0,0 km/h (0 Bft) 100 %
04.11.2016 07:40 -1,5 C -1,6 C -1,5 C 92 % 1017,2 hPa 0,0 l/m 0,0 km/h (0 Bft) N 0 0 min 0,000 mm 25 W/m -2,6 C -1,5 C 0,0 km/h (0 Bft) 100 %
04.11.2016 07:50 -1,4 C -1,5 C -1,4 C 92 % 1017,1 hPa 0,0 l/m 0,0 km/h (0 Bft) N 0 0 min 0,000 mm 33 W/m -2,5 C -1,4 C 0,0 km/h (0 Bft) 100 %
04.11.2016 08:00 -1,4 C -1,4 C -1,4 C 92 % 1017,1 hPa 0,0 l/m 0,0 km/h (0 Bft) N 0 0 min 0,000 mm 42 W/m -2,5 C -1,4 C 0,0 km/h (0 Bft) 100 %
04.11.2016 08:10 -1,2 C -1,4 C -1,2 C 92 % 1017,1 hPa 0,0 l/m 0,0 km/h (0 Bft) N-NW 337 0 min 0,000 mm 58 W/m -2,3 C -1,2 C 1,6 km/h (1 Bft) 100 %
04.11.2016 08:20 -0,9 C -1,2 C -0,9 C 92 % 1017,2 hPa 0,0 l/m 0,0 km/h (0 Bft) N 0 0 min 0,000 mm 58 W/m -2,0 C -0,9 C 0,0 km/h (0 Bft) 100 %
04.11.2016 08:30 -0,8 C -0,9 C -0,8 C 92 % 1017,3 hPa 0,0 l/m 0,0 km/h (0 Bft) N 0 0 min 0,000 mm 72 W/m -1,9 C -0,8 C 0,0 km/h (0 Bft) 100 %
04.11.2016 08:40 -0,6 C -0,8 C -0,6 C 92 % 1017,3 hPa 0,0 l/m 0,0 km/h (0 Bft) N-NW 337 0 min 0,000 mm 95 W/m -1,7 C -0,6 C 1,6 km/h (1 Bft) 100 %
04.11.2016 08:50 -0,4 C -0,6 C -0,4 C 92 % 1017,4 hPa 0,0 l/m 0,0 km/h (0 Bft) N 0 0 min 0,000 mm 62 W/m -1,5 C -0,4 C 0,0 km/h (0 Bft) 100 %
04.11.2016 09:00 -0,1 C -0,4 C -0,1 C 92 % 1017,5 hPa 0,0 l/m 0,0 km/h (0 Bft) N 0 10 min 0,025 mm 220 W/m -1,2 C -0,1 C 0,0 km/h (0 Bft) 100 %
04.11.2016 09:10 0,7 C -0,1 C 0,7 C 91 % 1017,5 hPa 0,0 l/m 0,0 km/h (0 Bft) N 0 10 min 0,000 mm 225 W/m -0,6 C 0,7 C 0,0 km/h (0 Bft) 100 %
04.11.2016 09:20 1,4 C 0,7 C 1,4 C 92 % 1017,3 hPa 0,0 l/m 0,0 km/h (0 Bft) N 0 10 min 0,000 mm 244 W/m 0,2 C 1,4 C 0,0 km/h (0 Bft) 100 %
04.11.2016 09:30 2,1 C 1,4 C 2,1 C 91 % 1017,2 hPa 0,0 l/m 0,0 km/h (0 Bft) N-NW 337 10 min 0,000 mm 295 W/m 0,8 C 2,1 C 1,6 km/h (1 Bft) 97 %
04.11.2016 09:40 2,7 C 2,1 C 2,7 C 91 % 1017,1 hPa 0,0 l/m 0,0 km/h (0 Bft) N 0 10 min 0,000 mm 330 W/m 1,4 C 2,7 C 0,0 km/h (0 Bft) 98 %
04.11.2016 09:50 2,9 C 2,7 C 2,9 C 92 % 1017,0 hPa 0,0 l/m 0,0 km/h (0 Bft) N 0 10 min 0,000 mm 260 W/m 1,7 C 2,9 C 0,0 km/h (0 Bft) 98 %
04.11.2016 10:00 3,2 C 2,9 C 3,2 C 92 % 1017,0 hPa 0,0 l/m 0,0 km/h (0 Bft) N 0 10 min 0,076 mm 171 W/m 2,0 C 3,2 C 0,0 km/h (0 Bft) 97 %
04.11.2016 10:10 3,6 C 3,2 C 3,6 C 92 % 1017,0 hPa 0,0 l/m 0,0 km/h (0 Bft) N-NW 337 10 min 0,000 mm 206 W/m 2,4 C 3,6 C 1,6 km/h (1 Bft) 98 %
04.11.2016 10:20 4,1 C 3,6 C 4,1 C 91 % 1016,9 hPa 0,0 l/m 0,0 km/h (0 Bft) N-NW 337 10 min 0,000 mm 265 W/m 2,8 C 4,1 C 3,2 km/h (1 Bft) 97 %
04.11.2016 10:30 4,4 C 4,1 C 4,4 C 91 % 1016,9 hPa 0,0 l/m 0,0 km/h (0 Bft) N 0 10 min 0,000 mm 236 W/m 3,1 C 4,4 C 0,0 km/h (0 Bft) 98 %
04.11.2016 10:40 4,7 C 4,4 C 4,7 C 90 % 1016,7 hPa 0,0 l/m 1,6 km/h (1 Bft) N-NW 337 10 min 0,000 mm 329 W/m 3,2 C 4,7 C 6,4 km/h (2 Bft) 97 %
04.11.2016 10:50 4,9 C 4,6 C 4,9 C 88 % 1016,5 hPa 0,0 l/m 4,8 km/h (1 Bft) S-SO 157 10 min 0,000 mm 476 W/m 3,1 C 4,9 C 9,7 km/h (2 Bft) 98 %
04.11.2016 11:00 5,4 C 4,9 C 5,4 C 87 % 1016,4 hPa 0,0 l/m 6,4 km/h (2 Bft) S-SO 157 10 min 0,102 mm 429 W/m 3,4 C 5,4 C 16,1 km/h (3 Bft) 97 %
04.11.2016 11:10 5,6 C 4,9 C 5,6 C 85 % 1016,4 hPa 0,0 l/m 2,9 km/h (1 Bft) S 184 10 min 0,000 mm 183 W/m 3,3 C 5,6 C 6,4 km/h (2 Bft) 100 %
04.11.2016 11:20 5,3 C 5,3 C 5,6 C 86 % 1016,1 hPa 0,0 l/m 3,0 km/h (1 Bft) S-SO 162 10 min 0,000 mm 193 W/m 3,2 C 5,3 C 8,0 km/h (2 Bft) 100 %
04.11.2016 11:30 5,4 C 5,3 C 5,4 C 87 % 1016,2 hPa 0,0 l/m 4,3 km/h (1 Bft) S-SO 167 10 min 0,000 mm 213 W/m 3,4 C 5,4 C 9,7 km/h (2 Bft) 100 %
04.11.2016 11:40 5,8 C 5,4 C 5,8 C 85 % 1016,1 hPa 0,0 l/m 3,6 km/h (1 Bft) S 189 10 min 0,000 mm 225 W/m 3,5 C 5,8 C 11,3 km/h (2 Bft) 100 %
04.11.2016 11:50 5,7 C 5,6 C 5,8 C 84 % 1015,6 hPa 0,0 l/m 1,8 km/h (1 Bft) SO 146 10 min 0,000 mm 329 W/m 3,2 C 5,7 C 8,0 km/h (2 Bft) 100 %
04.11.2016 12:00 5,8 C 5,6 C 5,8 C 85 % 1015,4 hPa 0,0 l/m 4,2 km/h (1 Bft) S-SW 212 10 min 0,102 mm 172 W/m 3,5 C 5,8 C 12,9 km/h (3 Bft) 100 %
04.11.2016 12:10 5,9 C 5,8 C 5,9 C 83 % 1015,8 hPa 0,0 l/m 2,1 km/h (1 Bft) S-SW 210 0 min 0,000 mm 139 W/m 3,2 C 5,9 C 9,7 km/h (2 Bft) 100 %
04.11.2016 12:20 5,8 C 5,8 C 5,9 C 84 % 1015,5 hPa 0,0 l/m 0,9 km/h (0 Bft) SW 224 0 min 0,000 mm 137 W/m 3,3 C 5,8 C 4,8 km/h (1 Bft) 100 %
04.11.2016 12:30 5,9 C 5,8 C 5,9 C 84 % 1015,4 hPa 0,0 l/m 2,1 km/h (1 Bft) SW 217 0 min 0,000 mm 114 W/m 3,4 C 5,9 C 6,4 km/h (2 Bft) 100 %
04.11.2016 12:40 5,9 C 5,9 C 6,0 C 84 % 1015,4 hPa 0,0 l/m 2,2 km/h (1 Bft) SW 215 0 min 0,000 mm 111 W/m 3,4 C 5,9 C 6,4 km/h (2 Bft) 99 %
04.11.2016 12:50 6,0 C 5,9 C 6,0 C 84 % 1015,4 hPa 0,0 l/m 0,2 km/h (0 Bft) SW 215 0 min 0,000 mm 130 W/m 3,5 C 6,0 C 4,8 km/h (1 Bft) 100 %
04.11.2016 13:00 6,1 C 5,9 C 6,1 C 84 % 1015,3 hPa 0,0 l/m 0,0 km/h (0 Bft) SW 215 10 min 0,051 mm 207 W/m 3,6 C 6,1 C 0,0 km/h (0 Bft) 100 %
04.11.2016 13:10 6,3 C 6,1 C 6,3 C 84 % 1014,9 hPa 0,0 l/m 0,0 km/h (0 Bft) SW 215 10 min 0,000 mm 171 W/m 3,8 C 6,3 C 1,6 km/h (1 Bft) 100 %
04.11.2016 13:20 6,3 C 6,3 C 6,3 C 83 % 1014,7 hPa 0,0 l/m 0,0 km/h (0 Bft) SW 215 0 min 0,000 mm 146 W/m 3,6 C 6,3 C 0,0 km/h (0 Bft) 100 %
04.11.2016 13:30 6,4 C 6,3 C 6,4 C 82 % 1014,7 hPa 0,0 l/m 0,0 km/h (0 Bft) SW 215 0 min 0,000 mm 139 W/m 3,6 C 6,4 C 0,0 km/h (0 Bft) 100 %
04.11.2016 13:40 6,7 C 6,4 C 6,7 C 82 % 1014,5 hPa 0,0 l/m 0,0 km/h (0 Bft) S-SW 213 0 min 0,000 mm 137 W/m 3,8 C 6,7 C 1,6 km/h (1 Bft) 100 %
04.11.2016 13:50 6,8 C 6,7 C 6,8 C 82 % 1014,4 hPa 0,0 l/m 0,4 km/h (0 Bft) S 187 0 min 0,000 mm 113 W/m 3,9 C 6,8 C 4,8 km/h (1 Bft) 100 %
04.11.2016 14:00 6,9 C 6,8 C 6,9 C 81 % 1014,3 hPa 0,0 l/m 0,3 km/h (0 Bft) S 187 0 min 0,076 mm 113 W/m 3,9 C 6,9 C 4,8 km/h (1 Bft) 100 %
04.11.2016 14:10 7,0 C 6,9 C 7,0 C 82 % 1014,3 hPa 0,0 l/m 0,0 km/h (0 Bft) S 187 0 min 0,000 mm 130 W/m 4,1 C 7,0 C 0,0 km/h (0 Bft) 100 %
04.11.2016 14:20 7,2 C 7,0 C 7,2 C 82 % 1014,2 hPa 0,0 l/m 0,0 km/h (0 Bft) S-SW 205 0 min 0,000 mm 134 W/m 4,3 C 7,2 C 1,6 km/h (1 Bft) 100 %
04.11.2016 14:30 7,1 C 7,1 C 7,2 C 80 % 1014,0 hPa 0,0 l/m 0,0 km/h (0 Bft) S-SW 205 0 min 0,000 mm 100 W/m 3,9 C 7,1 C 0,0 km/h (0 Bft) 100 %
04.11.2016 14:40 7,1 C 7,1 C 7,2 C 80 % 1013,7 hPa 0,0 l/m 0,0 km/h (0 Bft) S-SW 205 0 min 0,000 mm 88 W/m 3,9 C 7,1 C 0,0 km/h (0 Bft) 99 %
04.11.2016 14:50 7,1 C 7,1 C 7,1 C 81 % 1013,6 hPa 0,0 l/m 0,0 km/h (0 Bft) S-SW 205 0 min 0,000 mm 86 W/m 4,1 C 7,1 C 0,0 km/h (0 Bft) 99 %
04.11.2016 15:00 7,1 C 7,1 C 7,1 C 81 % 1013,6 hPa 0,0 l/m 0,0 km/h (0 Bft) S-SW 204 0 min 0,051 mm 79 W/m 4,1 C 7,1 C 0,0 km/h (0 Bft) 99 %
04.11.2016 15:10 7,1 C 7,1 C 7,1 C 80 % 1013,4 hPa 0,0 l/m 0,0 km/h (0 Bft) S-SW 204 0 min 0,000 mm 84 W/m 3,9 C 7,1 C 0,0 km/h (0 Bft) 100 %
04.11.2016 15:20 7,2 C 7,1 C 7,2 C 81 % 1013,3 hPa 0,0 l/m 0,0 km/h (0 Bft) S-SW 204 0 min 0,000 mm 70 W/m 4,2 C 7,2 C 0,0 km/h (0 Bft) 99 %
04.11.2016 15:30 7,2 C 7,2 C 7,2 C 80 % 1013,3 hPa 0,0 l/m 0,0 km/h (0 Bft) S-SW 204 0 min 0,000 mm 60 W/m 4,0 C 7,2 C 0,0 km/h (0 Bft) 99 %
04.11.2016 15:40 7,1 C 7,1 C 7,2 C 81 % 1013,1 hPa 0,0 l/m 0,0 km/h (0 Bft) S-SW 204 0 min 0,000 mm 56 W/m 4,1 C 7,1 C 0,0 km/h (0 Bft) 100 %
04.11.2016 15:50 7,1 C 7,1 C 7,1 C 81 % 1013,2 hPa 0,0 l/m 0,0 km/h (0 Bft) S-SW 204 0 min 0,000 mm 44 W/m 4,1 C 7,1 C 0,0 km/h (0 Bft) 91 %
04.11.2016 16:00 7,1 C 7,1 C 7,1 C 80 % 1013,0 hPa 0,0 l/m 0,0 km/h (0 Bft) S-SW 204 0 min 0,025 mm 30 W/m 3,9 C 7,1 C 0,0 km/h (0 Bft) 100 %
04.11.2016 16:10 6,9 C 6,9 C 7,1 C 81 % 1012,9 hPa 0,0 l/m 0,0 km/h (0 Bft) S-SW 204 0 min 0,000 mm 18 W/m 3,9 C 6,9 C 0,0 km/h (0 Bft) 100 %
04.11.2016 16:20 6,8 C 6,8 C 6,9 C 82 % 1012,8 hPa 0,0 l/m 0,0 km/h (0 Bft) S-SW 204 0 min 0,000 mm 11 W/m 3,9 C 6,8 C 0,0 km/h (0 Bft) 100 %
04.11.2016 16:30 6,7 C 6,7 C 6,9 C 83 % 1012,8 hPa 0,0 l/m 0,0 km/h (0 Bft) S-SW 204 0 min 0,000 mm 9 W/m 4,0 C 6,7 C 0,0 km/h (0 Bft) 100 %
04.11.2016 16:40 6,6 C 6,6 C 6,7 C 84 % 1013,0 hPa 0,0 l/m 0,0 km/h (0 Bft) S-SW 204 0 min 0,000 mm 5 W/m 4,1 C 6,6 C 0,0 km/h (0 Bft) 100 %
04.11.2016 16:50 6,4 C 6,4 C 6,6 C 84 % 1012,7 hPa 0,0 l/m 0,0 km/h (0 Bft) S-SW 204 0 min 0,000 mm 0 W/m 3,9 C 6,4 C 0,0 km/h (0 Bft) 99 %
04.11.2016 17:00 6,3 C 6,3 C 6,4 C 86 % 1012,6 hPa 0,0 l/m 0,0 km/h (0 Bft) S-SW 204 0 min 0,000 mm 0 W/m 4,1 C 6,3 C 1,6 km/h (1 Bft) 97 %
04.11.2016 17:10 6,1 C 6,1 C 6,3 C 86 % 1012,6 hPa 0,0 l/m 0,0 km/h (0 Bft) SW 218 0 min 0,000 mm 0 W/m 3,9 C 6,1 C 0,0 km/h (0 Bft) 98 %
04.11.2016 17:20 5,8 C 5,8 C 6,1 C 86 % 1012,4 hPa 0,0 l/m 0,0 km/h (0 Bft) SW 218 0 min 0,000 mm 0 W/m 3,6 C 5,8 C 0,0 km/h (0 Bft) 97 %
04.11.2016 17:30 5,7 C 5,7 C 5,8 C 86 % 1012,2 hPa 0,0 l/m 0,0 km/h (0 Bft) SW 218 0 min 0,000 mm 0 W/m 3,5 C 5,7 C 0,0 km/h (0 Bft) 98 %
04.11.2016 17:40 5,5 C 5,5 C 5,7 C 87 % 1012,3 hPa 0,0 l/m 0,0 km/h (0 Bft) SW 218 0 min 0,000 mm 0 W/m 3,5 C 5,5 C 0,0 km/h (0 Bft) 97 %
04.11.2016 17:50 5,3 C 5,3 C 5,5 C 87 % 1012,3 hPa 0,0 l/m 0,0 km/h (0 Bft) SW 218 0 min 0,000 mm 0 W/m 3,3 C 5,3 C 0,0 km/h (0 Bft) 98 %
04.11.2016 18:00 5,2 C 5,2 C 5,3 C 87 % 1012,2 hPa 0,0 l/m 0,0 km/h (0 Bft) SW 218 0 min 0,000 mm 0 W/m 3,2 C 5,2 C 0,0 km/h (0 Bft) 92 %
04.11.2016 18:10 5,1 C 5,1 C 5,2 C 88 % 1012,2 hPa 0,0 l/m 0,0 km/h (0 Bft) SW 218 0 min 0,000 mm 0 W/m 3,3 C 5,1 C 0,0 km/h (0 Bft) 95 %
04.11.2016 18:20 5,0 C 5,0 C 5,1 C 88 % 1012,2 hPa 0,0 l/m 0,0 km/h (0 Bft) SW 218 0 min 0,000 mm 0 W/m 3,2 C 5,0 C 0,0 km/h (0 Bft) 98 %
04.11.2016 18:30 4,9 C 4,9 C 5,0 C 89 % 1012,0 hPa 0,0 l/m 0,0 km/h (0 Bft) SW 218 0 min 0,000 mm 0 W/m 3,2 C 4,9 C 0,0 km/h (0 Bft) 97 %
04.11.2016 18:40 4,9 C 4,9 C 4,9 C 89 % 1011,9 hPa 0,0 l/m 0,0 km/h (0 Bft) SW 218 0 min 0,000 mm 0 W/m 3,2 C 4,9 C 0,0 km/h (0 Bft) 98 %
04.11.2016 18:50 4,9 C 4,9 C 4,9 C 90 % 1011,9 hPa 0,0 l/m 0,0 km/h (0 Bft) SW 218 0 min 0,000 mm 0 W/m 3,4 C 4,9 C 1,6 km/h (1 Bft) 97 %
04.11.2016 19:00 4,8 C 4,8 C 4,9 C 90 % 1011,9 hPa 0,0 l/m 0,0 km/h (0 Bft) SW 218 0 min 0,000 mm 0 W/m 3,3 C 4,8 C 1,6 km/h (1 Bft) 89 %
04.11.2016 19:10 4,7 C 4,7 C 4,8 C 90 % 1011,6 hPa 0,0 l/m 0,0 km/h (0 Bft) SW 218 0 min 0,000 mm 0 W/m 3,2 C 4,7 C 0,0 km/h (0 Bft) 97 %
04.11.2016 19:20 4,7 C 4,7 C 4,7 C 90 % 1011,6 hPa 0,0 l/m 0,1 km/h (0 Bft) SW 218 0 min 0,000 mm 0 W/m 3,2 C 4,7 C 3,2 km/h (1 Bft) 97 %
04.11.2016 19:30 4,7 C 4,7 C 4,7 C 90 % 1011,4 hPa 0,0 l/m 1,3 km/h (1 Bft) W-SW 246 0 min 0,000 mm 0 W/m 3,2 C 4,7 C 3,2 km/h (1 Bft) 97 %
04.11.2016 19:40 4,6 C 4,6 C 4,7 C 90 % 1011,1 hPa 0,0 l/m 0,0 km/h (0 Bft) W-SW 246 0 min 0,000 mm 0 W/m 3,1 C 4,6 C 0,0 km/h (0 Bft) 97 %
04.11.2016 19:50 4,7 C 4,6 C 4,7 C 90 % 1011,1 hPa 0,0 l/m 0,1 km/h (0 Bft) W-SW 247 0 min 0,000 mm 0 W/m 3,2 C 4,7 C 1,6 km/h (1 Bft) 98 %
04.11.2016 20:00 4,7 C 4,6 C 4,7 C 90 % 1011,2 hPa 0,0 l/m 1,2 km/h (1 Bft) W 277 0 min 0,000 mm 0 W/m 3,2 C 4,7 C 3,2 km/h (1 Bft) 97 %
04.11.2016 20:10 4,6 C 4,6 C 4,7 C 90 % 1010,9 hPa 0,0 l/m 0,0 km/h (0 Bft) W 277 0 min 0,000 mm 0 W/m 3,1 C 4,6 C 0,0 km/h (0 Bft) 97 %
04.11.2016 20:20 4,6 C 4,6 C 4,6 C 91 % 1010,7 hPa 0,0 l/m 0,0 km/h (0 Bft) W 277 0 min 0,000 mm 0 W/m 3,3 C 4,6 C 0,0 km/h (0 Bft) 98 %
04.11.2016 20:30 4,6 C 4,6 C 4,6 C 91 % 1010,8 hPa 0,0 l/m 0,4 km/h (0 Bft) W 277 0 min 0,000 mm 0 W/m 3,3 C 4,6 C 4,8 km/h (1 Bft) 97 %
04.11.2016 20:40 4,6 C 4,6 C 4,6 C 91 % 1010,7 hPa 0,0 l/m 0,0 km/h (0 Bft) W 277 0 min 0,000 mm 0 W/m 3,3 C 4,6 C 1,6 km/h (1 Bft) 98 %
04.11.2016 20:50 4,6 C 4,6 C 4,6 C 91 % 1010,3 hPa 0,0 l/m 0,0 km/h (0 Bft) W 278 0 min 0,000 mm 0 W/m 3,3 C 4,6 C 0,0 km/h (0 Bft) 97 %
04.11.2016 21:00 4,6 C 4,6 C 4,6 C 91 % 1010,2 hPa 0,0 l/m 0,0 km/h (0 Bft) W 277 0 min 0,000 mm 0 W/m 3,3 C 4,6 C 0,0 km/h (0 Bft) 90 %
04.11.2016 21:10 4,6 C 4,6 C 4,6 C 91 % 1010,4 hPa 0,0 l/m 0,0 km/h (0 Bft) N 0 0 min 0,000 mm 0 W/m 3,3 C 4,6 C 0,0 km/h (0 Bft) 90 %
04.11.2016 21:20 4,5 C 4,5 C 4,6 C 91 % 1010,4 hPa 0,0 l/m 0,0 km/h (0 Bft) N 0 0 min 0,000 mm 0 W/m 3,2 C 4,5 C 0,0 km/h (0 Bft) 100 %
04.11.2016 21:30 4,5 C 4,5 C 4,5 C 91 % 1010,1 hPa 0,0 l/m 0,0 km/h (0 Bft) N 0 0 min 0,000 mm 0 W/m 3,2 C 4,5 C 0,0 km/h (0 Bft) 100 %
04.11.2016 21:40 4,5 C 4,5 C 4,5 C 91 % 1010,1 hPa 0,0 l/m 0,0 km/h (0 Bft) N 0 0 min 0,000 mm 0 W/m 3,2 C 4,5 C 0,0 km/h (0 Bft) 100 %
04.11.2016 21:50 4,5 C 4,5 C 4,5 C 91 % 1010,0 hPa 0,0 l/m 0,0 km/h (0 Bft) N 0 0 min 0,000 mm 0 W/m 3,2 C 4,5 C 0,0 km/h (0 Bft) 100 %
04.11.2016 22:00 4,4 C 4,4 C 4,5 C 91 % 1010,0 hPa 0,0 l/m 0,0 km/h (0 Bft) W 270 0 min 0,000 mm 0 W/m 3,1 C 4,4 C 1,6 km/h (1 Bft) 100 %
04.11.2016 22:10 4,3 C 4,3 C 4,4 C 91 % 1010,0 hPa 0,0 l/m 0,0 km/h (0 Bft) W 270 0 min 0,000 mm 0 W/m 3,0 C 4,3 C 3,2 km/h (1 Bft) 100 %
04.11.2016 22:20 4,2 C 4,2 C 4,3 C 91 % 1009,9 hPa 0,0 l/m 0,0 km/h (0 Bft) N 0 0 min 0,000 mm 0 W/m 2,9 C 4,2 C 0,0 km/h (0 Bft) 100 %
04.11.2016 22:30 4,2 C 4,2 C 4,2 C 91 % 1009,8 hPa 0,0 l/m 0,0 km/h (0 Bft) W 270 0 min 0,000 mm 0 W/m 2,9 C 4,2 C 3,2 km/h (1 Bft) 100 %
04.11.2016 22:40 4,2 C 4,2 C 4,2 C 91 % 1009,6 hPa 0,0 l/m 0,0 km/h (0 Bft) N 0 0 min 0,000 mm 0 W/m 2,9 C 4,2 C 0,0 km/h (0 Bft) 100 %
04.11.2016 22:50 4,2 C 4,2 C 4,2 C 91 % 1009,5 hPa 0,0 l/m 0,0 km/h (0 Bft) N 0 0 min 0,000 mm 0 W/m 2,9 C 4,2 C 0,0 km/h (0 Bft) 100 %
04.11.2016 23:00 4,2 C 4,2 C 4,2 C 91 % 1009,3 hPa 0,0 l/m 0,0 km/h (0 Bft) N 0 0 min 0,000 mm 0 W/m 2,9 C 4,2 C 0,0 km/h (0 Bft) 100 %
04.11.2016 23:10 4,1 C 4,1 C 4,2 C 91 % 1009,3 hPa 0,0 l/m 0,0 km/h (0 Bft) N 0 0 min 0,000 mm 0 W/m 2,8 C 4,1 C 0,0 km/h (0 Bft) 100 %
04.11.2016 23:20 4,0 C 4,0 C 4,1 C 91 % 1009,0 hPa 0,0 l/m 0,0 km/h (0 Bft) N 0 0 min 0,000 mm 0 W/m 2,7 C 4,0 C 0,0 km/h (0 Bft) 100 %
04.11.2016 23:30 3,9 C 3,9 C 4,0 C 91 % 1009,0 hPa 0,0 l/m 0,0 km/h (0 Bft) N 0 0 min 0,000 mm 0 W/m 2,6 C 3,9 C 0,0 km/h (0 Bft) 100 %
04.11.2016 23:40 3,8 C 3,8 C 3,9 C 91 % 1008,7 hPa 0,0 l/m 0,0 km/h (0 Bft) N 0 0 min 0,000 mm 0 W/m 2,5 C 3,8 C 0,0 km/h (0 Bft) 100 %
04.11.2016 23:50 3,7 C 3,7 C 3,8 C 91 % 1008,7 hPa 0,0 l/m 0,0 km/h (0 Bft) N 0 0 min 0,000 mm 0 W/m 2,4 C 3,7 C 0,0 km/h (0 Bft) 100 %
_ Min-Zeit 05:20 05:20 05:20 14:30 23:40 - 00:00 - - - - - 05:20 05:20 00:00 00:30
Minimum _ -2,2 C -2,2 C -2,1 C 80 % 1008,7 hPa - 0,0 km/h (0 Bft) - - - - - -3,5 C -2,2 C 0,0 km/h (0 Bft) 88 %
_ Max-Zeit 14:20 15:30 14:20 02:20 00:00 00:00 11:00 - - 09:00 11:00 10:50 14:20 14:20 11:00 05:40
Maximum _ 7,2 C 7,2 C 7,2 C 92 % 1020,7 hPa 0,0 l/m 6,4 km/h
S-SO (2 Bft)
- - 10 min 0,102 mm 476 W/m 4,3 C 7,2 C 16,1 km/h
S (3 Bft)
100 %
Durchschnitt _ 2,7 C 2,6 C 2,7 C 89 % 1015,2 hPa #0,0 l/m 0,3 km/h (0 Bft) S-SO - #3:30 h #0,508 mm 143 W/m 1,0 C 2,7 C 1,2 km/h (1 Bft) 98 %
PRIVATE WETTERSTATION BILLIGHEIM-ALLFELD - www.neckar-odenwald-wetter.de - Holger Sonntag